User: anonymous   Login
Location: Unspecified
(0.0000°N, 0.0000°E)
Time: 07:21:07
(UTC+00:00)
Language:

AO-27 - Orbit

View from above orbital plane
View from above orbital plane
View from above satellite
View from above satellite

Ground track
Ground track

The orbit data is extracted from the following two-line orbital elements,

1 22825U 93061C   21260.87052602  .00000005  00000-0  19929-4 0  9998
2 22825  98.9155 280.7419 0009378 122.1108 238.0985 14.30124373459192
Epoch (UTC): 17 September 2021 20:53:33
Eccentricity: 0.0009378
inclination: 98.9155°
perigee height: 784 km
apogee height: 798 km
right ascension of ascending node: 280.7419°
argument of perigee: 122.1108°
revolutions per day: 14.30124373
mean anomaly at epoch: 238.0985°
orbit number at epoch: 45919

The dashed part of the orbit path shows where the satellite is in the earth's shadow,  

DLR